This is the latest recevied weather packets stored in our database for station/object LU3HGB-WX. If no packets are shown the sender has not sent any weather packets the latest 10 day(s).
| Time | Temp. | Humidity | Pressure | Rain* | Wind** | Luminosity | Snow |
|---|---|---|---|---|---|---|---|
| 1777828360 | 21.11° C | 31% | 1015 hPa | 0 mm | - | 682 W/m² | - |
| 1777828059 | 20.56° C | 35% | 1015 hPa | 0 mm | - | 687 W/m² | - |
| 1777827760 | 20.56° C | 31% | 1015 hPa | 0 mm | - | 694 W/m² | - |
| 1777827459 | 20.56° C | 33% | 1015 hPa | 0 mm | - | 698 W/m² | - |
| 1777827159 | 20.56° C | 31% | 1016 hPa | 0 mm | - | 702 W/m² | - |
| 1777826859 | 20.56° C | 33% | 1016 hPa | 0 mm | - | 704 W/m² | - |
| 1777826559 | 20.56° C | 33% | 1016 hPa | 0 mm | - | 706 W/m² | - |
| 1777826259 | 20.56° C | 31% | 1016 hPa | 0 mm | - | 705 W/m² | - |
| 1777825960 | 20.56° C | 33% | 1016 hPa | 0 mm | - | 707 W/m² | - |
| 1777825659 | 20° C | 35% | 1016 hPa | 0 mm | - | 707 W/m² | - |
| 1777825359 | 20° C | 33% | 1016 hPa | 0 mm | - | 708 W/m² | - |
| 1777825060 | 20° C | 37% | 1016 hPa | 0 mm | - | 708 W/m² | - |
| 1777824761 | 19.44° C | 35% | 1017 hPa | 0 mm | - | 708 W/m² | - |
| 1777824459 | 19.44° C | 32% | 1017 hPa | 0 mm | - | 707 W/m² | - |
| 1777824159 | 19.44° C | 33% | 1016 hPa | 0 mm | - | 706 W/m² | - |
| 1777823860 | 19.44° C | 35% | 1016 hPa | 0 mm | - | 701 W/m² | - |
| 1777823559 | 19.44° C | 33% | 1016 hPa | 0 mm | - | 700 W/m² | - |
| 1777823260 | 19.44° C | 31% | 1016 hPa | 0 mm | - | 695 W/m² | - |
| 1777822960 | 19.44° C | 35% | 1017 hPa | 0 mm | - | 690 W/m² | - |
| 1777822659 | 19.44° C | 29% | 1017 hPa | 0 mm | - | 686 W/m² | - |
| 1777822359 | 18.89° C | 33% | 1017 hPa | 0 mm | - | 682 W/m² | - |
| 1777822059 | 18.89° C | 32% | 1017 hPa | 0 mm | - | 673 W/m² | - |
| 1777821760 | 18.89° C | 34% | 1017 hPa | 0 mm | - | 668 W/m² | - |
| 1777821459 | 18.33° C | 34% | 1017 hPa | 0 mm | - | 660 W/m² | - |
| 1777821160 | 18.33° C | 36% | 1017 hPa | 0 mm | - | 654 W/m² | - |
* Rain latest hour (hover to see other rain measurements)
** Current wind speed in m/s (hover to see current wind gust speed)